Overview Statistics Trail Chart Weather Telemetry Raw packets
 

This is the latest recevied weather packets stored in our database for station/object s59zo-6. If no packets are shown the sender has not sent any weather packets the latest 10 day(s).

<< 73 74 75 76 77 78 79 >>
Time Temp. Humidity Pressure Rain* Wind** Luminosity Snow
1788077405 20.56° C 73% 1020.9 hPa 0 mm - - -
1788077104 20° C 75% 1020.8 hPa 0 mm - - -
1788076805 20° C 75% 1020.7 hPa 0 mm - - -
1788076505 20° C 75% 1020.6 hPa 0 mm - - -
1788076205 19.44° C 76% 1020.6 hPa 0 mm - - -
1788075904 19.44° C 77% 1020.7 hPa 0 mm - - -
1788075605 19.44° C 79% 1020.7 hPa 0 mm - - -
1788075304 18.89° C 80% 1020.8 hPa 0 mm - - -
1788075005 18.89° C 80% 1020.7 hPa 0 mm - - -
1788074704 18.33° C 81% 1020.8 hPa 0 mm - - -
1788074405 18.33° C 81% 1020.8 hPa 0 mm - - -
1788074104 17.78° C 82% 1020.7 hPa 0 mm - - -
1788073818 17.78° C 82% 1020.8 hPa 0 mm - - -
1788073504 17.78° C 82% 1020.7 hPa 0 mm - - -
1788073204 17.22° C 85% 1020.6 hPa 0 mm - - -
1788072903 17.22° C 85% 1020.7 hPa 0 mm - - -
1788072604 16.67° C 85% 1020.7 hPa 0 mm - - -
1788072305 16.67° C 86% 1020.7 hPa 0 mm - - -
1788072005 16.67° C 86% 1020.6 hPa 0 mm - - -
1788071704 16.11° C 86% 1020.7 hPa 0 mm - - -
1788071404 16.11° C 87% 1020.7 hPa 0 mm - - -
1788071104 15.56° C 87% 1020.7 hPa 0 mm - - -
1788070805 15.56° C 88% 1020.9 hPa 0 mm - - -
1788070505 15.56° C 88% 1020.7 hPa 0 mm - - -
1788070204 15° C 88% 1020.9 hPa 0 mm - - -

* Rain latest hour (hover to see other rain measurements)
** Current wind speed in m/s (hover to see current wind gust speed)